Wind_Speed
31 33 34 36 37 38 38 39 39 39 40 43 46 49 53 58 62 66 69 70 70 70 71 71 69 67 67 67 67 66 66 65 64 65 67 69 72 75 75 69 56 41 31 26
29 32 35 37 40 41 41 42 42 42 42 44 46 49 53 58 62 66 68 68 69 70 70 69 67 66 65 66 66 65 65 64 64 65 67 69 71 74 74 68 56 41 28 21
28 31 35 39 43 44 44 45 45 45 45 46 47 50 54 58 62 65 67 68 68 69 69 68 66 64 64 64 64 63 63 63 64 65 66 68 71 73 74 69 58 44 29 19
29 33 37 41 44 47 47 47 48 47 48 48 49 51 54 58 61 65 67 67 67 68 68 67 65 63 63 63 63 62 62 62 63 64 65 67 69 71 73 71 62 49 35 24
31 34 37 41 46 49 50 50 53 53 52 51 51 52 54 57 61 64 66 66 66 67 67 66 64 62 61 61 61 60 60 61 62 63 64 65 67 69 71 71 67 57 43 31
30 35 39 42 46 49 52 54 57 57 55 53 52 51 53 57 60 64 65 65 65 66 66 65 63 60 59 59 59 59 59 59 60 61 63 64 66 68 70 70 69 64 53 40
29 33 37 42 46 49 52 55 58 59 58 55 52 52 53 56 60 63 65 65 65 65 64 63 61 59 58 58 58 57 58 58 58 59 61 63 65 67 69 69 68 67 62 51
32 36 39 43 46 49 51 55 57 59 60 57 54 53 54 56 59 63 64 64 64 64 63 62 60 58 56 56 56 56 56 56 56 57 59 61 63 64 66 67 67 66 65 61
31 34 38 42 45 48 51 54 57 59 61 59 56 54 54 56 59 62 64 64 63 63 62 61 59 57 55 54 54 54 54 54 54 55 56 58 60 61 63 63 64 64 64 62
32 35 38 42 45 48 51 54 57 59 62 61 58 55 54 56 59 61 63 63 62 61 61 60 58 56 54 53 53 53 52 51 51 52 54 56 58 59 60 61 62 63 63 62
33 36 38 42 45 48 51 54 57 60 62 62 59 56 55 55 58 61 62 62 61 60 59 58 57 55 53 51 51 51 51 50 49 50 51 53 55 57 58 59 60 61 61 61
36 39 42 44 46 49 51 54 57 60 63 63 60 57 55 55 57 60 61 62 61 59 58 57 56 54 52 50 49 49 49 49 48 48 49 51 53 56 57 58 58 58 59 60
39 40 42 45 47 49 51 54 57 60 63 63 61 57 55 54 56 59 60 61 60 58 57 56 55 53 51 49 48 48 48 47 47 47 48 49 50 52 53 55 56 56 56 56
41 43 43 45 47 49 51 54 57 60 63 63 61 57 55 54 55 58 59 60 59 58 56 55 53 52 50 48 47 46 46 46 47 47 47 48 49 50 51 51 52 53 54 54
42 45 46 47 48 49 51 55 57 59 62 63 60 57 55 53 54 57 59 59 59 57 55 53 52 51 49 48 46 45 44 45 45 46 47 47 48 49 49 50 50 51 51 51
43 46 47 48 49 50 52 55 57 59 62 62 60 57 54 53 53 56 58 58 58 56 54 52 51 50 48 47 46 44 43 43 44 45 46 47 48 48 48 49 49 49 49 49
45 48 49 49 49 50 52 54 57 58 61 62 59 56 53 52 53 55 57 58 57 55 53 51 50 48 47 46 45 44 43 42 42 43 44 45 47 47 48 48 48 48 48 48
47 50 50 50 50 50 52 54 56 58 60 61 58 55 53 51 52 54 56 57 56 55 53 50 49 47 46 45 44 43 42 42 41 41 42 43 45 47 48 48 47 47 47 47
48 51 51 50 50 50 52 54 56 57 59 60 57 54 52 51 51 52 54 55 55 54 52 50 48 46 45 44 43 42 42 41 41 40 41 42 43 45 46 47 46 46 45 45
49 51 50 50 50 51 52 53 55 57 59 59 55 53 51 50 50 51 53 54 54 53 52 49 47 45 44 43 42 41 41 41 40 40 40 40 41 42 43 45 45 45 44 44
49 51 50 50 50 51 52 53 55 57 58 58 54 52 50 49 49 50 52 53 53 52 51 49 46 45 44 42 42 41 40 40 40 40 40 39 39 39 41 42 43 44 43 43
50 51 51 51 51 52 52 54 55 56 57 57 54 51 49 49 49 49 51 51 51 51 50 48 46 44 43 42 41 40 39 39 40 40 40 40 39 38 38 39 41 42 42 42
52 52 52 52 52 52 53 54 55 56 57 56 53 50 49 48 48 48 49 50 50 50 49 47 45 44 42 42 41 40 39 38 39 40 40 40 40 39 38 38 38 39 40 40
53 53 53 52 52 52 53 54 55 55 56 55 51 49 48 47 47 47 48 49 49 48 48 46 45 43 42 41 40 39 38 37 38 39 41 41 41 40 38 37 37 37 38 38
54 53 53 53 53 53 53 53 54 55 55 53 50 47 47 46 46 46 47 47 47 47 47 45 44 42 41 40 40 39 38 37 37 39 40 41 41 40 39 37 36 35 35 36
54 53 53 53 53 53 53 53 54 54 53 51 48 46 46 45 45 45 45 46 46 46 45 44 42 41 41 40 40 39 38 37 36 37 39 40 40 40 39 37 35 34 33 34
54 53 53 53 52 52 53 53 53 53 52 50 47 45 45 44 44 44 44 44 44 44 44 43 41 40 40 40 40 39 38 36 36 36 38 39 40 39 38 36 34 32 31 32
Wind_Direction
16 14 11 9 6 0 355 351 348 346 344 343 344 345 346 347 348 348 348 347 345 344 344 344 345 346 346 347 348 349 351 353 353 354 355 357 358 359 360 0 2 9 25 40
15 12 11 10 9 6 0 356 353 350 348 347 346 346 348 348 349 349 348 347 345 345 345 346 347 347 347 349 350 352 354 355 357 357 359 1 2 4 5 6 7 11 25 44
11 9 7 9 8 8 4 359 356 353 351 349 348 348 349 349 349 349 349 348 346 345 346 347 348 349 349 351 353 355 357 358 359 0 2 4 6 8 10 11 11 14 21 33
5 5 6 5 5 6 5 1 359 355 353 351 349 349 349 349 349 350 349 348 347 347 348 349 349 350 351 352 355 357 359 1 2 3 4 7 9 11 13 15 15 16 18 20
359 1 1 2 3 2 2 2 360 357 354 352 350 349 349 349 349 350 350 349 348 348 348 350 351 352 353 354 356 359 0 3 5 5 7 9 11 13 16 18 19 19 19 18
353 355 357 358 359 359 358 360 358 357 354 352 349 348 348 348 350 350 350 350 349 349 349 351 352 353 354 355 357 360 2 5 7 7 9 11 13 15 17 19 21 22 22 21
348 351 353 354 355 355 356 356 356 355 353 351 349 348 348 348 350 350 351 350 350 350 350 352 353 354 355 356 358 1 3 6 9 9 10 12 14 16 18 20 22 24 25 24
344 347 350 350 351 352 352 353 353 353 352 350 349 348 348 348 350 351 351 351 351 351 351 352 354 355 355 357 359 1 4 7 10 11 12 13 15 16 18 20 22 24 26 27
339 342 344 346 347 348 349 350 351 351 351 350 348 348 348 348 350 351 351 352 351 351 352 353 354 355 356 358 360 2 5 7 9 12 13 14 15 17 18 20 22 24 26 27
333 337 341 342 344 345 346 348 349 349 350 350 348 348 348 348 349 351 352 352 352 352 352 354 355 356 357 358 0 3 5 7 9 11 12 14 15 16 18 19 21 23 26 27
328 332 336 338 340 342 344 345 347 348 348 349 348 347 347 348 349 350 352 352 352 352 353 354 355 356 357 358 360 3 6 8 9 10 11 12 14 16 17 18 20 22 24 26
324 328 332 335 337 340 341 343 345 346 347 347 347 347 346 347 349 350 352 352 352 352 353 354 355 357 357 358 360 2 5 8 9 10 11 12 13 14 15 17 19 21 22 24
318 323 327 330 333 336 339 341 342 344 346 346 346 346 345 346 348 350 351 352 352 352 352 354 355 357 358 358 359 2 5 8 10 11 11 12 13 14 14 15 17 20 21 23
313 317 322 326 330 333 335 337 340 342 344 345 345 345 344 345 347 349 351 352 352 352 352 353 355 357 358 358 358 1 4 7 10 11 12 12 13 14 15 16 17 18 20 22
308 312 317 321 325 329 332 335 337 340 343 344 344 344 344 344 346 348 350 351 352 352 352 353 354 356 357 358 358 360 2 6 9 11 12 13 13 14 14 15 16 18 19 20
302 307 311 316 321 325 329 332 335 338 341 343 343 343 343 343 345 347 349 350 351 351 351 352 353 355 357 357 358 358 0 4 7 10 11 13 14 14 14 14 15 16 18 19
297 302 306 312 317 321 326 329 332 335 339 341 342 342 342 342 343 346 348 349 350 351 351 351 352 353 355 357 357 357 358 1 5 7 9 11 12 13 13 13 14 15 15 17
292 296 302 307 313 317 322 326 329 333 337 340 340 340 340 341 342 344 346 348 349 350 350 350 351 352 354 355 356 356 357 359 1 4 6 8 10 11 12 12 13 13 14 15
286 291 297 304 309 314 319 323 327 331 336 338 339 339 339 339 341 343 345 347 349 349 350 350 350 350 352 353 355 355 356 357 358 360 2 4 6 8 9 10 11 12 12 13
283 288 295 300 306 311 316 321 325 329 334 336 337 337 337 338 339 341 344 346 348 348 349 349 349 349 350 352 353 354 355 356 356 357 358 359 1 3 5 7 8 10 10 11
281 287 293 298 303 308 314 318 323 327 331 334 334 334 335 336 337 340 343 345 346 347 347 348 348 348 349 350 352 353 354 355 355 355 355 355 356 358 360 2 4 6 8 8
281 286 291 296 301 306 311 316 321 325 328 331 332 331 333 334 336 338 341 343 345 346 346 347 347 347 348 349 350 351 353 354 355 354 354 354 354 354 355 357 360 2 4 6
279 284 289 293 298 303 308 314 318 322 326 329 329 329 330 332 334 337 339 342 344 345 345 346 346 346 347 348 349 349 350 351 353 354 354 353 353 352 352 354 356 358 1 2
277 282 286 290 295 300 306 311 316 319 323 326 326 326 327 329 332 334 338 340 343 344 344 345 345 345 346 347 347 347 347 348 350 352 353 353 352 352 352 352 353 355 358 360
274 278 283 287 292 298 303 308 313 316 320 323 323 323 324 327 329 332 336 339 341 342 343 344 344 345 345 346 346 346 346 346 347 349 350 351 351 351 351 351 352 354 356 358
271 275 280 285 290 295 300 305 310 314 317 319 320 320 322 325 327 330 333 337 339 341 342 343 343 344 344 345 345 345 345 344 345 346 348 349 350 350 350 350 351 353 355 356
268 273 278 282 287 292 298 303 307 310 314 316 317 318 320 323 325 328 331 335 337 339 340 341 342 343 344 344 344 344 344 343 343 344 346 347 348 348 349 349 350 352 354 356
Height
5865 5859 5853 5848 5841 5833 5824 5816 5808 5800 5791 5781 5770 5759 5748 5735 5722 5708 5693 5677 5662 5646 5631 5614 5597 5581 5566 5551 5535 5519 5502 5486 5470 5454 5437 5419 5400 5378 5355 5332 5312 5298 5288 5281
5865 5859 5853 5846 5839 5830 5821 5812 5804 5795 5786 5776 5765 5754 5742 5730 5716 5702 5688 5673 5658 5642 5626 5610 5594 5579 5563 5548 5533 5517 5500 5484 5468 5452 5436 5418 5399 5378 5356 5335 5317 5303 5294 5287
5864 5857 5851 5843 5836 5827 5818 5808 5800 5790 5781 5770 5760 5748 5737 5724 5711 5698 5683 5669 5654 5638 5623 5607 5591 5576 5561 5546 5531 5515 5500 5484 5468 5452 5436 5419 5400 5381 5361 5341 5323 5309 5300 5293
5860 5854 5846 5842 5832 5823 5815 5806 5796 5786 5775 5765 5754 5743 5731 5720 5707 5694 5679 5665 5650 5634 5619 5603 5588 5573 5558 5544 5530 5515 5500 5485 5469 5454 5438 5422 5404 5386 5367 5348 5330 5316 5305 5298
5855 5849 5844 5836 5827 5819 5811 5803 5792 5781 5771 5760 5749 5738 5727 5715 5703 5690 5676 5661 5646 5631 5616 5601 5586 5571 5557 5543 5529 5515 5502 5487 5472 5457 5442 5426 5410 5392 5374 5356 5339 5324 5312 5303
5851 5844 5838 5833 5824 5815 5807 5798 5788 5777 5767 5756 5745 5735 5724 5712 5699 5686 5672 5658 5643 5628 5613 5599 5584 5570 5557 5543 5530 5517 5503 5489 5474 5459 5445 5430 5414 5398 5381 5365 5348 5333 5320 5309
5848 5842 5836 5829 5820 5811 5803 5796 5784 5773 5763 5752 5742 5731 5720 5707 5695 5682 5669 5654 5640 5626 5611 5597 5583 5569 5556 5543 5530 5517 5503 5490 5477 5463 5449 5434 5419 5404 5389 5373 5357 5343 5329 5317
5843 5836 5832 5823 5816 5809 5801 5791 5780 5770 5759 5748 5737 5726 5715 5703 5691 5679 5665 5652 5638 5624 5610 5595 5581 5568 5556 5543 5530 5517 5504 5492 5480 5467 5454 5440 5426 5412 5398 5384 5369 5355 5341 5328
5840 5836 5828 5820 5813 5806 5797 5788 5777 5767 5756 5744 5733 5722 5711 5700 5688 5676 5662 5649 5635 5621 5608 5594 5581 5568 5556 5544 5531 5519 5506 5494 5483 5471 5460 5447 5434 5421 5408 5394 5381 5366 5352 5339
5835 5830 5824 5816 5809 5802 5793 5784 5774 5763 5752 5741 5729 5718 5708 5696 5685 5673 5660 5646 5633 5619 5606 5593 5580 5568 5556 5544 5532 5520 5509 5497 5486 5475 5464 5453 5441 5428 5415 5403 5390 5376 5362 5350
5830 5825 5820 5813 5805 5798 5789 5780 5770 5760 5749 5737 5726 5715 5704 5693 5682 5670 5657 5644 5630 5617 5605 5592 5580 5568 5556 5545 5534 5522 5511 5500 5489 5478 5467 5456 5445 5434 5421 5409 5396 5384 5372 5360
5823 5818 5813 5807 5800 5793 5785 5776 5766 5756 5745 5733 5722 5711 5700 5689 5678 5667 5654 5641 5629 5616 5604 5591 5579 5568 5556 5546 5535 5524 5514 5503 5493 5482 5472 5460 5449 5437 5426 5415 5403 5391 5380 5368
5817 5812 5807 5801 5795 5787 5780 5771 5762 5751 5740 5729 5718 5707 5696 5686 5675 5664 5652 5639 5627 5615 5603 5591 5579 5567 5557 5546 5536 5526 5516 5506 5495 5485 5475 5465 5454 5443 5432 5421 5409 5399 5388 5377
5809 5805 5801 5795 5789 5782 5774 5766 5757 5747 5736 5725 5714 5703 5693 5682 5672 5661 5649 5637 5625 5613 5601 5590 5578 5567 5557 5547 5537 5527 5517 5507 5497 5488 5478 5468 5458 5448 5438 5428 5417 5406 5396 5386
5803 5798 5793 5788 5783 5776 5769 5761 5752 5742 5731 5720 5709 5699 5689 5679 5669 5658 5647 5635 5623 5612 5600 5589 5578 5568 5557 5548 5538 5528 5519 5509 5500 5490 5481 5471 5462 5452 5442 5433 5423 5413 5403 5393
5796 5790 5786 5781 5776 5770 5763 5755 5746 5737 5726 5715 5705 5694 5685 5675 5665 5655 5644 5632 5621 5610 5599 5588 5577 5567 5557 5547 5538 5529 5520 5511 5502 5493 5484 5474 5465 5456 5447 5437 5428 5419 5409 5400
5786 5781 5777 5774 5769 5763 5756 5749 5741 5731 5721 5710 5700 5690 5680 5671 5662 5652 5641 5630 5619 5608 5598 5587 5577 5567 5557 5547 5539 5530 5521 5512 5503 5494 5486 5477 5469 5460 5450 5441 5432 5423 5413 5405
5777 5772 5769 5766 5761 5756 5750 5742 5734 5725 5715 5705 5694 5685 5676 5667 5658 5648 5638 5627 5616 5606 5596 5586 5576 5566 5556 5547 5539 5530 5522 5513 5504 5496 5488 5480 5471 5463 5454 5445 5436 5427 5418 5409
5768 5763 5761 5758 5753 5748 5742 5735 5727 5718 5709 5699 5689 5680 5671 5662 5654 5644 5634 5624 5614 5604 5594 5584 5574 5565 5556 5547 5538 5530 5522 5513 5505 5497 5489 5481 5473 5465 5457 5448 5440 5431 5422 5414
5758 5754 5752 5749 5744 5739 5734 5727 5720 5711 5702 5693 5683 5674 5666 5657 5649 5640 5630 5621 5611 5601 5591 5582 5573 5564 5555 5546 5538 5530 5521 5513 5505 5497 5490 5482 5475 5467 5460 5451 5443 5434 5426 5417
5747 5745 5742 5739 5735 5730 5725 5718 5711 5703 5695 5686 5677 5669 5660 5652 5644 5636 5626 5617 5608 5598 5589 5580 5571 5562 5553 5545 5537 5529 5521 5513 5505 5498 5490 5483 5475 5468 5461 5453 5445 5437 5428 5420
5736 5734 5732 5728 5725 5720 5715 5709 5703 5695 5687 5679 5671 5663 5655 5647 5639 5631 5622 5613 5604 5594 5586 5577 5568 5560 5551 5543 5535 5528 5520 5513 5505 5498 5490 5482 5475 5468 5461 5453 5446 5438 5430 5422
5724 5723 5720 5717 5714 5710 5705 5700 5694 5687 5679 5671 5663 5656 5648 5641 5633 5625 5617 5609 5600 5591 5582 5574 5566 5557 5549 5541 5533 5526 5519 5512 5505 5497 5490 5482 5474 5467 5460 5453 5446 5438 5431 5424
5711 5710 5708 5706 5702 5699 5695 5690 5684 5678 5671 5664 5656 5649 5642 5634 5627 5620 5612 5604 5595 5587 5579 5571 5563 5555 5546 5538 5531 5524 5517 5510 5503 5496 5489 5481 5473 5466 5459 5452 5445 5438 5431 5424
5698 5697 5696 5693 5691 5687 5684 5679 5674 5668 5662 5655 5648 5641 5634 5627 5621 5614 5606 5598 5590 5582 5575 5567 5559 5551 5544 5536 5528 5521 5515 5508 5501 5494 5487 5480 5472 5465 5457 5451 5444 5437 5431 5424
5684 5684 5683 5681 5679 5676 5673 5669 5664 5658 5652 5646 5640 5633 5627 5620 5614 5607 5600 5592 5585 5578 5570 5563 5555 5548 5540 5533 5526 5519 5512 5505 5499 5492 5485 5478 5471 5463 5456 5449 5443 5437 5430 5424
5669 5669 5669 5667 5666 5663 5661 5658 5653 5648 5643 5637 5631 5625 5619 5613 5606 5600 5593 5587 5580 5573 5565 5558 5551 5544 5537 5530 5523 5516 5509 5502 5496 5490 5483 5476 5469 5462 5455 5448 5442 5436 5430 5424